Time,TemperatureF,DewpointF,PressureIn,WindDirection,WindDirectionDegrees,WindSpeedMPH,WindSpeedGustMPH,Humidity,HourlyPrecipIn,Conditions,Clouds,dailyrainin,SoftwareType,DateUTC
2013-10-25 00:01:00,34.5,30.8,30.16,West,273,2.0,2.0,86,0.00,,FEW047,0.00,VWS V14.01,2013-10-25 04:01:00,
2013-10-25 00:06:00,34.4,30.6,30.16,NW,310,0.0,2.0,86,0.00,,FEW047,0.00,VWS V14.01,2013-10-25 04:06:00,
2013-10-25 00:11:00,34.3,30.6,30.17,NW,304,2.0,2.0,86,0.00,,FEW047,0.00,VWS V14.01,2013-10-25 04:11:00,
2013-10-25 00:16:00,34.3,30.6,30.16,South,184,0.0,3.0,86,0.00,,FEW047,0.00,VWS V14.01,2013-10-25 04:16:00,
2013-10-25 00:21:00,34.2,30.5,30.16,SSE,166,0.0,3.0,86,0.00,,FEW047,0.00,VWS V14.01,2013-10-25 04:21:00,
2013-10-25 00:26:00,34.1,30.4,30.16,SSE,165,2.0,3.0,86,0.00,,FEW047,0.00,VWS V14.01,2013-10-25 04:26:00,
2013-10-25 00:31:00,34.1,30.4,30.17,West,277,4.0,4.0,86,0.00,,FEW047,0.00,VWS V14.01,2013-10-25 04:31:00,
2013-10-25 00:36:00,34.0,30.3,30.17,ESE,118,2.0,3.0,86,0.00,,FEW047,0.00,VWS V14.01,2013-10-25 04:36:00,
2013-10-25 00:41:00,34.0,30.3,30.17,NNW,338,4.0,4.0,86,0.00,,FEW047,0.00,VWS V14.01,2013-10-25 04:41:00,
2013-10-25 00:46:00,34.0,30.3,30.17,North,360,2.0,3.0,86,0.00,,FEW047,0.00,VWS V14.01,2013-10-25 04:46:00,
2013-10-25 00:51:00,34.0,30.0,30.17,West,263,0.0,2.0,85,0.00,,FEW047,0.00,VWS V14.01,2013-10-25 04:51:00,
2013-10-25 00:56:00,34.0,30.0,30.17,WNW,296,0.0,2.0,85,0.00,,FEW047,0.00,VWS V14.01,2013-10-25 04:56:00,
2013-10-25 01:01:00,34.0,30.0,30.17,West,262,2.0,2.0,85,0.00,,,0.00,VWS V14.01,2013-10-25 05:01:00,
2013-10-25 01:06:00,34.0,30.0,30.17,North,5,6.0,6.0,85,0.00,,,0.00,VWS V14.01,2013-10-25 05:06:00,
2013-10-25 01:11:00,33.9,29.9,30.17,SW,223,2.0,3.0,85,0.00,,,0.00,VWS V14.01,2013-10-25 05:11:00,
2013-10-25 01:17:00,33.9,29.9,30.17,South,173,0.0,3.0,85,0.00,,,0.00,VWS V14.01,2013-10-25 05:17:00,
2013-10-25 01:22:00,33.9,29.9,30.17,West,277,2.0,4.0,85,0.00,,,0.00,VWS V14.01,2013-10-25 05:22:00,
2013-10-25 01:27:00,33.8,29.8,30.18,WSW,247,0.0,4.0,85,0.00,,,0.00,VWS V14.01,2013-10-25 05:27:00,
2013-10-25 01:32:00,33.8,29.8,30.18,South,179,0.0,2.0,85,0.00,,,0.00,VWS V14.01,2013-10-25 05:32:00,
2013-10-25 01:37:00,33.7,29.7,30.18,WSW,240,0.0,2.0,85,0.00,,,0.00,VWS V14.01,2013-10-25 05:37:00,
2013-10-25 01:42:00,33.7,29.7,30.18,NW,304,2.0,4.0,85,0.00,,,0.00,VWS V14.01,2013-10-25 05:42:00,
2013-10-25 01:47:00,33.6,29.9,30.18,West,281,4.0,4.0,86,0.00,,,0.00,VWS V14.01,2013-10-25 05:47:00,
2013-10-25 01:52:00,33.6,29.9,30.18,West,261,2.0,2.0,86,0.00,,,0.00,VWS V14.01,2013-10-25 05:52:00,
2013-10-25 01:57:00,33.5,29.8,30.18,WNW,297,0.0,3.0,86,0.00,,,0.00,VWS V14.01,2013-10-25 05:57:00,
2013-10-25 02:02:00,33.5,29.8,30.18,South,190,0.0,2.0,86,0.00,,,0.00,VWS V14.01,2013-10-25 06:02:00,
2013-10-25 02:07:00,33.4,29.7,30.18,NW,308,2.0,3.0,86,0.00,,,0.00,VWS V14.01,2013-10-25 06:07:00,
2013-10-25 02:12:00,33.3,29.6,30.18,SW,236,0.0,2.0,86,0.00,,,0.00,VWS V14.01,2013-10-25 06:12:00,
2013-10-25 02:17:00,33.2,29.5,30.18,South,182,2.0,3.0,86,0.00,,,0.00,VWS V14.01,2013-10-25 06:17:00,
2013-10-25 02:22:00,33.1,29.7,30.19,NNW,327,0.0,2.0,87,0.00,,,0.00,VWS V14.01,2013-10-25 06:22:00,
2013-10-25 02:27:00,33.0,29.6,30.19,WSW,242,2.0,2.0,87,0.00,,,0.00,VWS V14.01,2013-10-25 06:27:00,
2013-10-25 02:32:00,33.0,29.6,30.19,SW,218,2.0,2.0,87,0.00,,,0.00,VWS V14.01,2013-10-25 06:32:00,
2013-10-25 02:37:00,32.9,29.7,30.19,SW,219,2.0,2.0,88,0.00,,,0.00,VWS V14.01,2013-10-25 06:37:00,
2013-10-25 02:42:00,32.8,29.6,30.19,SW,233,0.0,2.0,88,0.00,,,0.00,VWS V14.01,2013-10-25 06:42:00,
2013-10-25 02:47:00,32.7,29.5,30.19,SW,236,0.0,3.0,88,0.00,,,0.00,VWS V14.01,2013-10-25 06:47:00,
2013-10-25 02:52:00,32.6,29.5,30.20,South,181,2.0,3.0,88,0.00,,,0.00,VWS V14.01,2013-10-25 06:52:00,
2013-10-25 02:57:00,32.6,29.7,30.20,WNW,301,4.0,4.0,89,0.00,,,0.00,VWS V14.01,2013-10-25 06:57:00,
2013-10-25 03:02:00,32.5,29.6,30.20,WSW,249,4.0,4.0,89,0.00,,,0.00,VWS V14.01,2013-10-25 07:02:00,
2013-10-25 03:07:00,32.5,29.6,30.20,SE,142,2.0,4.0,89,0.00,,,0.00,VWS V14.01,2013-10-25 07:07:00,
2013-10-25 03:12:00,32.4,29.5,30.20,South,185,2.0,2.0,89,0.00,,,0.00,VWS V14.01,2013-10-25 07:12:00,
2013-10-25 03:17:00,32.4,29.5,30.20,WNW,287,0.0,2.0,89,0.00,,,0.00,VWS V14.01,2013-10-25 07:17:00,
2013-10-25 03:22:00,32.3,29.4,30.20,NNW,333,8.0,8.0,89,0.00,,,0.00,VWS V14.01,2013-10-25 07:22:00,
2013-10-25 03:27:00,32.2,29.6,30.20,West,273,0.0,5.0,90,0.00,,,0.00,VWS V14.01,2013-10-25 07:27:00,
2013-10-25 03:32:00,32.2,29.6,30.20,WNW,292,4.0,4.0,90,0.00,,,0.00,VWS V14.01,2013-10-25 07:32:00,
2013-10-25 03:38:00,32.1,29.5,30.20,WNW,297,2.0,4.0,90,0.00,,,0.00,VWS V14.01,2013-10-25 07:38:00,
2013-10-25 03:43:00,32.1,29.5,30.20,SSW,202,2.0,2.0,90,0.00,,,0.00,VWS V14.01,2013-10-25 07:43:00,
2013-10-25 03:48:00,32.0,29.4,30.20,WSW,256,0.0,4.0,90,0.00,,,0.00,VWS V14.01,2013-10-25 07:48:00,
2013-10-25 03:53:00,32.0,29.7,30.20,WNW,298,2.0,3.0,91,0.00,,,0.00,VWS V14.01,2013-10-25 07:53:00,
2013-10-25 03:58:00,32.0,29.7,30.20,West,281,2.0,4.0,91,0.00,,,0.00,VWS V14.01,2013-10-25 07:58:00,
2013-10-25 04:03:00,32.0,29.7,30.20,NW,321,2.0,2.0,91,0.00,,,0.00,VWS V14.01,2013-10-25 08:03:00,
2013-10-25 04:08:00,31.9,29.6,30.20,NW,324,0.0,3.0,91,0.00,,,0.00,VWS V14.01,2013-10-25 08:08:00,
2013-10-25 04:13:00,31.9,29.6,30.20,NW,325,0.0,3.0,91,0.00,,,0.00,VWS V14.01,2013-10-25 08:13:00,
2013-10-25 04:18:00,31.9,29.6,30.20,WNW,284,2.0,3.0,91,0.00,,,0.00,VWS V14.01,2013-10-25 08:18:00,
2013-10-25 04:23:00,31.9,29.6,30.20,WNW,290,2.0,6.0,91,0.00,,,0.00,VWS V14.01,2013-10-25 08:23:00,
2013-10-25 04:28:00,31.9,29.6,30.20,West,266,2.0,6.0,91,0.00,,,0.00,VWS V14.01,2013-10-25 08:28:00,
2013-10-25 04:33:00,31.9,29.6,30.20,WNW,296,0.0,3.0,91,0.00,,,0.00,VWS V14.01,2013-10-25 08:33:00,
2013-10-25 04:38:00,31.9,29.6,30.21,West,265,4.0,4.0,91,0.00,,,0.00,VWS V14.01,2013-10-25 08:38:00,
2013-10-25 04:43:00,31.9,29.8,30.21,West,281,2.0,3.0,92,0.00,,,0.00,VWS V14.01,2013-10-25 08:43:00,
2013-10-25 04:48:00,31.8,29.5,30.21,SSW,210,0.0,3.0,91,0.00,,,0.00,VWS V14.01,2013-10-25 08:48:00,
2013-10-25 04:53:00,31.8,29.8,30.21,West,278,2.0,4.0,92,0.00,,,0.00,VWS V14.01,2013-10-25 08:53:00,
2013-10-25 04:58:00,31.8,29.8,30.21,WSW,246,2.0,4.0,92,0.00,,,0.00,VWS V14.01,2013-10-25 08:58:00,
2013-10-25 05:03:00,31.7,29.6,30.22,NW,315,4.0,4.0,92,0.00,,,0.00,VWS V14.01,2013-10-25 09:03:00,
2013-10-25 05:08:00,31.7,29.6,30.22,WNW,297,2.0,3.0,92,0.00,,,0.00,VWS V14.01,2013-10-25 09:08:00,
2013-10-25 05:13:00,31.7,29.6,30.22,WNW,288,2.0,2.0,92,0.00,,,0.00,VWS V14.01,2013-10-25 09:13:00,
2013-10-25 05:18:00,31.6,29.5,30.22,WNW,292,0.0,2.0,92,0.00,,,0.00,VWS V14.01,2013-10-25 09:18:00,
2013-10-25 05:23:00,31.5,29.5,30.22,West,271,2.0,3.0,92,0.00,,,0.00,VWS V14.01,2013-10-25 09:23:00,
2013-10-25 05:28:00,31.5,29.7,30.22,West,271,2.0,3.0,93,0.00,,,0.00,VWS V14.01,2013-10-25 09:28:00,
2013-10-25 05:33:00,31.5,29.7,30.22,West,273,2.0,2.0,93,0.00,,,0.00,VWS V14.01,2013-10-25 09:33:00,
2013-10-25 05:38:00,31.4,29.6,30.23,West,261,0.0,4.0,93,0.00,,,0.00,VWS V14.01,2013-10-25 09:38:00,
2013-10-25 05:43:00,31.4,29.6,30.23,WNW,292,2.0,3.0,93,0.00,,,0.00,VWS V14.01,2013-10-25 09:43:00,
2013-10-25 05:49:00,31.4,29.6,30.23,West,259,2.0,3.0,93,0.00,,,0.00,VWS V14.01,2013-10-25 09:49:00,
2013-10-25 05:54:00,31.4,29.6,30.23,SSE,155,0.0,3.0,93,0.00,,,0.00,VWS V14.01,2013-10-25 09:54:00,
2013-10-25 05:59:00,31.3,29.5,30.23,SSW,209,0.0,3.0,93,0.00,,,0.00,VWS V14.01,2013-10-25 09:59:00,
2013-10-25 06:04:00,31.2,29.4,30.23,WNW,302,2.0,2.0,93,0.00,,CLR,0.00,VWS V14.01,2013-10-25 10:04:00,
2013-10-25 06:09:00,31.2,29.4,30.23,West,272,2.0,2.0,93,0.00,,CLR,0.00,VWS V14.01,2013-10-25 10:09:00,
2013-10-25 06:14:00,31.2,29.7,30.23,WNW,296,4.0,4.0,94,0.00,,CLR,0.00,VWS V14.01,2013-10-25 10:14:00,
2013-10-25 06:19:00,31.3,29.8,30.24,NW,315,0.0,2.0,94,0.00,,CLR,0.00,VWS V14.01,2013-10-25 10:19:00,
2013-10-25 06:24:00,31.4,29.9,30.24,SW,219,2.0,2.0,94,0.00,,CLR,0.00,VWS V14.01,2013-10-25 10:24:00,
2013-10-25 06:29:00,31.5,30.0,30.25,SW,233,0.0,2.0,94,0.00,,CLR,0.00,VWS V14.01,2013-10-25 10:29:00,
2013-10-25 06:34:00,31.7,30.2,30.25,South,176,2.0,3.0,94,0.00,,CLR,0.00,VWS V14.01,2013-10-25 10:34:00,
2013-10-25 06:39:00,31.8,30.3,30.25,WSW,246,2.0,3.0,94,0.00,,CLR,0.00,VWS V14.01,2013-10-25 10:39:00,
2013-10-25 06:44:00,32.0,30.5,30.25,West,274,4.0,4.0,94,0.00,,CLR,0.00,VWS V14.01,2013-10-25 10:44:00,
2013-10-25 06:49:00,32.1,30.6,30.25,West,272,2.0,3.0,94,0.00,,BKN011,0.00,VWS V14.01,2013-10-25 10:49:00,
2013-10-25 06:54:00,32.3,30.8,30.25,West,281,0.0,4.0,94,0.00,,BKN011,0.00,VWS V14.01,2013-10-25 10:54:00,
2013-10-25 06:59:00,32.4,30.9,30.25,West,262,2.0,4.0,94,0.00,,BKN009,0.00,VWS V14.01,2013-10-25 10:59:00,
2013-10-25 07:04:00,32.5,31.0,30.26,NNW,341,6.0,6.0,94,0.00,,BKN009,0.00,VWS V14.01,2013-10-25 11:04:00,
2013-10-25 07:09:00,32.6,31.1,30.26,West,263,2.0,4.0,94,0.00,,BKN009,0.00,VWS V14.01,2013-10-25 11:09:00,
2013-10-25 07:14:00,32.6,31.1,30.26,WSW,251,0.0,3.0,94,0.00,,BKN009,0.00,VWS V14.01,2013-10-25 11:14:00,
2013-10-25 07:19:00,32.7,31.2,30.26,West,279,0.0,4.0,94,0.00,,BKN009,0.00,VWS V14.01,2013-10-25 11:19:00,
2013-10-25 07:24:00,32.8,31.3,30.26,SW,234,2.0,3.0,94,0.00,,BKN009,0.00,VWS V14.01,2013-10-25 11:24:00,
2013-10-25 07:29:00,32.8,31.3,30.27,North,5,6.0,6.0,94,0.00,,BKN009,0.00,VWS V14.01,2013-10-25 11:29:00,
2013-10-25 07:34:00,32.8,31.3,30.27,SSE,167,2.0,3.0,94,0.00,,BKN009,0.00,VWS V14.01,2013-10-25 11:34:00,
2013-10-25 07:39:00,32.8,31.3,30.27,WSW,256,2.0,3.0,94,0.00,,BKN009,0.00,VWS V14.01,2013-10-25 11:39:00,
2013-10-25 07:44:00,32.9,31.4,30.27,SSW,206,0.0,4.0,94,0.00,,BKN009,0.00,VWS V14.01,2013-10-25 11:44:00,
2013-10-25 07:49:00,33.0,31.5,30.27,West,262,2.0,6.0,94,0.00,,BKN009,0.00,VWS V14.01,2013-10-25 11:49:00,
2013-10-25 07:55:00,33.1,31.6,30.27,SW,215,2.0,4.0,94,0.00,,BKN009,0.00,VWS V14.01,2013-10-25 11:55:00,
2013-10-25 08:00:00,33.1,31.6,30.27,NW,311,0.0,6.0,94,0.00,,OVC007,0.00,VWS V14.01,2013-10-25 12:00:00,
2013-10-25 08:05:00,33.2,31.7,30.27,West,271,2.0,3.0,94,0.00,,OVC007,0.00,VWS V14.01,2013-10-25 12:05:00,
2013-10-25 08:10:00,33.2,31.7,30.27,WSW,258,0.0,4.0,94,0.00,,OVC007,0.00,VWS V14.01,2013-10-25 12:10:00,
2013-10-25 08:15:00,33.3,31.8,30.27,WSW,256,2.0,2.0,94,0.00,,OVC007,0.00,VWS V14.01,2013-10-25 12:15:00,
2013-10-25 08:20:00,33.4,31.9,30.28,WNW,292,2.0,2.0,94,0.00,,OVC007,0.00,VWS V14.01,2013-10-25 12:20:00,
2013-10-25 08:25:00,33.4,31.9,30.28,ENE,57,4.0,4.0,94,0.00,,OVC007,0.00,VWS V14.01,2013-10-25 12:25:00,
2013-10-25 08:30:00,33.4,31.9,30.28,WSW,244,4.0,4.0,94,0.00,,OVC007,0.00,VWS V14.01,2013-10-25 12:30:00,
2013-10-25 08:35:00,33.5,32.0,30.28,WNW,288,4.0,7.0,94,0.00,,OVC007,0.00,VWS V14.01,2013-10-25 12:35:00,
2013-10-25 08:40:00,33.6,32.1,30.29,West,266,2.0,2.0,94,0.00,,OVC007,0.00,VWS V14.01,2013-10-25 12:40:00,
2013-10-25 08:45:00,33.7,32.2,30.29,SW,224,4.0,4.0,94,0.00,,OVC007,0.00,VWS V14.01,2013-10-25 12:45:00,
2013-10-25 08:50:00,33.7,31.9,30.29,West,271,4.0,4.0,93,0.00,,OVC007,0.00,VWS V14.01,2013-10-25 12:50:00,
2013-10-25 08:55:00,33.8,32.0,30.29,SSE,164,2.0,4.0,93,0.00,,OVC007,0.00,VWS V14.01,2013-10-25 12:55:00,
2013-10-25 09:00:00,33.9,32.1,30.30,South,171,0.0,1.0,93,0.00,,OVC007,0.00,VWS V14.01,2013-10-25 13:00:00,
2013-10-25 09:05:00,34.0,32.2,30.30,NNW,342,2.0,5.0,93,0.00,,OVC007,0.00,VWS V14.01,2013-10-25 13:05:00,
2013-10-25 09:10:00,34.0,32.2,30.30,WNW,292,2.0,2.0,93,0.00,,OVC007,0.00,VWS V14.01,2013-10-25 13:10:00,
2013-10-25 09:15:00,34.1,32.3,30.31,NNW,348,0.0,3.0,93,0.00,,OVC007,0.00,VWS V14.01,2013-10-25 13:15:00,
2013-10-25 09:20:00,34.1,32.3,30.31,West,264,2.0,2.0,93,0.00,,OVC007,0.00,VWS V14.01,2013-10-25 13:20:00,
2013-10-25 09:25:00,34.3,32.5,30.31,West,268,2.0,3.0,93,0.00,,OVC007,0.00,VWS V14.01,2013-10-25 13:25:00,
2013-10-25 09:30:00,34.4,32.6,30.31,WSW,258,0.0,2.0,93,0.00,,OVC007,0.00,VWS V14.01,2013-10-25 13:30:00,
2013-10-25 09:35:00,34.6,32.8,30.31,NW,309,2.0,3.0,93,0.00,,OVC007,0.00,VWS V14.01,2013-10-25 13:35:00,
2013-10-25 09:40:00,34.8,33.0,30.31,NW,309,2.0,2.0,93,0.00,,OVC007,0.00,VWS V14.01,2013-10-25 13:40:00,
2013-10-25 09:45:00,35.0,33.2,30.31,SW,218,0.0,2.0,93,0.00,,OVC007,0.00,VWS V14.01,2013-10-25 13:45:00,
2013-10-25 09:50:00,35.2,33.1,30.31,NW,319,2.0,2.0,92,0.00,,OVC007,0.00,VWS V14.01,2013-10-25 13:50:00,
2013-10-25 09:56:00,35.3,32.9,30.31,WNW,288,2.0,3.0,91,0.00,,OVC007,0.00,VWS V14.01,2013-10-25 13:56:00,
2013-10-25 10:01:00,35.5,33.1,30.31,NW,314,2.0,3.0,91,0.00,,OVC007,0.00,VWS V14.01,2013-10-25 14:01:00,
2013-10-25 10:06:00,35.6,33.2,30.31,WNW,290,4.0,4.0,91,0.00,,OVC007,0.00,VWS V14.01,2013-10-25 14:06:00,
2013-10-25 10:11:00,35.8,33.4,30.31,SW,226,4.0,4.0,91,0.00,,OVC007,0.00,VWS V14.01,2013-10-25 14:11:00,
2013-10-25 10:16:00,36.0,33.4,30.31,WSW,252,2.0,3.0,90,0.00,,OVC007,0.00,VWS V14.01,2013-10-25 14:16:00,
2013-10-25 10:21:00,36.3,33.7,30.31,West,275,2.0,2.0,90,0.00,,OVC007,0.00,VWS V14.01,2013-10-25 14:21:00,
2013-10-25 10:26:00,36.8,34.2,30.31,WSW,249,2.0,2.0,90,0.00,,OVC007,0.00,VWS V14.01,2013-10-25 14:26:00,
2013-10-25 10:31:00,37.0,33.8,30.31,West,262,0.0,2.0,88,0.00,,OVC007,0.00,VWS V14.01,2013-10-25 14:31:00,
2013-10-25 10:36:00,37.3,34.1,30.31,South,180,4.0,4.0,88,0.00,,OVC007,0.00,VWS V14.01,2013-10-25 14:36:00,
2013-10-25 10:41:00,37.4,33.9,30.31,SW,232,0.0,3.0,87,0.00,,OVC007,0.00,VWS V14.01,2013-10-25 14:41:00,
2013-10-25 10:46:00,37.6,34.1,30.31,North,355,0.0,4.0,87,0.00,,OVC007,0.00,VWS V14.01,2013-10-25 14:46:00,
2013-10-25 10:51:00,38.0,34.5,30.31,NNW,335,4.0,4.0,87,0.00,,OVC007,0.00,VWS V14.01,2013-10-25 14:51:00,
2013-10-25 10:56:00,38.2,34.4,30.31,West,261,6.0,6.0,86,0.00,,BKN011,0.00,VWS V14.01,2013-10-25 14:56:00,
2013-10-25 11:01:00,38.2,34.1,30.31,SSW,193,2.0,3.0,85,0.00,,BKN011,0.00,VWS V14.01,2013-10-25 15:01:00,
2013-10-25 11:06:00,38.6,34.5,30.31,WSW,252,2.0,3.0,85,0.00,,BKN011,0.00,VWS V14.01,2013-10-25 15:06:00,
2013-10-25 11:11:00,38.9,34.5,30.31,South,184,2.0,2.0,84,0.00,,BKN011,0.00,VWS V14.01,2013-10-25 15:11:00,
2013-10-25 11:16:00,38.9,34.2,30.31,NW,305,2.0,5.0,83,0.00,,BKN011,0.00,VWS V14.01,2013-10-25 15:16:00,
2013-10-25 11:21:00,39.0,34.6,30.31,SSW,194,4.0,4.0,84,0.00,,BKN011,0.00,VWS V14.01,2013-10-25 15:21:00,
2013-10-25 11:26:00,39.4,34.7,30.31,North,360,0.0,3.0,83,0.00,,BKN011,0.00,VWS V14.01,2013-10-25 15:26:00,
2013-10-25 11:31:00,39.5,34.2,30.31,WSW,247,4.0,4.0,81,0.00,,BKN011,0.00,VWS V14.01,2013-10-25 15:31:00,
2013-10-25 11:36:00,39.6,34.0,30.31,SSW,198,0.0,4.0,80,0.00,,BKN011,0.00,VWS V14.01,2013-10-25 15:36:00,
2013-10-25 11:41:00,39.9,34.2,30.30,North,9,2.0,2.0,80,0.00,,BKN011,0.00,VWS V14.01,2013-10-25 15:41:00,
2013-10-25 11:46:00,40.4,34.4,30.30,SW,214,4.0,4.0,79,0.00,,BKN011,0.00,VWS V14.01,2013-10-25 15:46:00,
2013-10-25 11:51:00,40.7,34.4,30.30,SSW,194,4.0,4.0,78,0.00,,BKN011,0.00,VWS V14.01,2013-10-25 15:51:00,
2013-10-25 11:56:00,40.9,34.3,30.30,WSW,238,6.0,6.0,77,0.00,,BKN011,0.00,VWS V14.01,2013-10-25 15:56:00,
2013-10-25 12:02:00,41.1,34.1,30.31,NNE,13,2.0,3.0,76,0.00,,BKN018,0.00,VWS V14.01,2013-10-25 16:02:00,
2013-10-25 12:07:00,41.7,34.7,30.31,SSW,203,2.0,4.0,76,0.00,,BKN018,0.00,VWS V14.01,2013-10-25 16:07:00,
2013-10-25 12:12:00,42.0,34.3,30.31,SSW,202,4.0,4.0,74,0.00,,BKN018,0.00,VWS V14.01,2013-10-25 16:12:00,
2013-10-25 12:17:00,42.1,34.1,30.31,WSW,238,2.0,6.0,73,0.00,,BKN018,0.00,VWS V14.01,2013-10-25 16:17:00,
2013-10-25 12:22:00,42.4,34.4,30.30,WSW,254,6.0,6.0,73,0.00,,BKN018,0.00,VWS V14.01,2013-10-25 16:22:00,
2013-10-25 12:27:00,42.7,34.3,30.30,WSW,239,2.0,6.0,72,0.00,,BKN018,0.00,VWS V14.01,2013-10-25 16:27:00,
2013-10-25 12:32:00,42.8,34.1,30.30,NNW,327,2.0,4.0,71,0.00,,BKN018,0.00,VWS V14.01,2013-10-25 16:32:00,
2013-10-25 12:37:00,43.1,33.6,30.30,NW,319,2.0,4.0,69,0.00,,BKN018,0.00,VWS V14.01,2013-10-25 16:37:00,
2013-10-25 12:42:00,43.2,33.0,30.30,NW,323,4.0,4.0,67,0.00,,BKN018,0.00,VWS V14.01,2013-10-25 16:42:00,
2013-10-25 12:47:00,43.2,32.6,30.30,WNW,286,2.0,4.0,66,0.00,,BKN018,0.00,VWS V14.01,2013-10-25 16:47:00,
2013-10-25 12:52:00,43.4,33.2,30.29,SW,231,0.0,2.0,67,0.00,,BKN018,0.00,VWS V14.01,2013-10-25 16:52:00,
2013-10-25 12:57:00,43.2,31.9,30.29,SSW,197,2.0,5.0,64,0.00,,BKN018,0.00,VWS V14.01,2013-10-25 16:57:00,
2013-10-25 13:02:00,43.1,31.4,30.29,WSW,238,6.0,6.0,63,0.00,,OVC070,0.00,VWS V14.01,2013-10-25 17:02:00,
2013-10-25 13:07:00,43.1,31.0,30.29,South,173,2.0,5.0,62,0.00,,OVC070,0.00,VWS V14.01,2013-10-25 17:07:00,
2013-10-25 13:12:00,43.2,30.3,30.29,WSW,252,4.0,4.0,60,0.00,,OVC070,0.00,VWS V14.01,2013-10-25 17:12:00,
2013-10-25 13:17:00,43.1,30.2,30.29,SW,232,6.0,6.0,60,0.00,,OVC070,0.00,VWS V14.01,2013-10-25 17:17:00,
2013-10-25 13:22:00,42.9,30.0,30.29,WSW,246,2.0,3.0,60,0.00,,OVC070,0.00,VWS V14.01,2013-10-25 17:22:00,
2013-10-25 13:27:00,42.9,30.4,30.28,West,275,0.0,7.0,61,0.00,,OVC070,0.00,VWS V14.01,2013-10-25 17:27:00,
2013-10-25 13:32:00,42.8,31.1,30.28,NNW,329,0.0,2.0,63,0.00,,OVC070,0.00,VWS V14.01,2013-10-25 17:32:00,
2013-10-25 13:37:00,43.0,30.9,30.28,West,260,4.0,4.0,62,0.00,,OVC070,0.00,VWS V14.01,2013-10-25 17:37:00,
2013-10-25 13:42:00,43.1,31.0,30.28,SE,143,2.0,2.0,62,0.00,,OVC070,0.00,VWS V14.01,2013-10-25 17:42:00,
2013-10-25 13:47:00,43.2,30.7,30.28,NNW,330,4.0,4.0,61,0.00,,OVC070,0.00,VWS V14.01,2013-10-25 17:47:00,
2013-10-25 13:52:00,43.3,29.5,30.28,NW,311,4.0,4.0,58,0.00,,OVC070,0.00,VWS V14.01,2013-10-25 17:52:00,
2013-10-25 13:57:00,43.3,30.0,30.27,West,277,2.0,4.0,59,0.00,,BKN060,0.00,VWS V14.01,2013-10-25 17:57:00,
2013-10-25 14:02:00,43.4,29.6,30.27,WNW,282,4.0,4.0,58,0.00,,BKN060,0.00,VWS V14.01,2013-10-25 18:02:00,
2013-10-25 14:07:00,43.4,29.6,30.27,NNW,331,0.0,4.0,58,0.00,,BKN060,0.00,VWS V14.01,2013-10-25 18:07:00,
2013-10-25 14:12:00,43.6,29.4,30.27,WSW,257,2.0,5.0,57,0.00,,BKN060,0.00,VWS V14.01,2013-10-25 18:12:00,
2013-10-25 14:17:00,43.6,29.8,30.27,SSW,202,0.0,5.0,58,0.00,,BKN060,0.00,VWS V14.01,2013-10-25 18:17:00,
2013-10-25 14:22:00,43.6,29.8,30.26,WSW,246,6.0,6.0,58,0.00,,BKN060,0.00,VWS V14.01,2013-10-25 18:22:00,
2013-10-25 14:27:00,43.6,29.0,30.26,NE,42,2.0,5.0,56,0.00,,BKN060,0.00,VWS V14.01,2013-10-25 18:27:00,
2013-10-25 14:33:00,43.7,28.6,30.26,NNW,338,6.0,6.0,55,0.00,,BKN060,0.00,VWS V14.01,2013-10-25 18:33:00,
2013-10-25 14:38:00,43.8,28.7,30.26,WSW,247,2.0,4.0,55,0.00,,BKN060,0.00,VWS V14.01,2013-10-25 18:38:00,
2013-10-25 14:43:00,43.8,28.7,30.26,WSW,246,4.0,4.0,55,0.00,,BKN060,0.00,VWS V14.01,2013-10-25 18:43:00,
2013-10-25 14:48:00,43.7,29.0,30.26,SSW,198,4.0,4.0,56,0.00,,BKN060,0.00,VWS V14.01,2013-10-25 18:48:00,
2013-10-25 14:53:00,43.6,29.8,30.26,SSE,159,2.0,5.0,58,0.00,,BKN060,0.00,VWS V14.01,2013-10-25 18:53:00,
2013-10-25 14:58:00,43.5,28.9,30.26,WNW,289,2.0,6.0,56,0.00,,BKN065,0.00,VWS V14.01,2013-10-25 18:58:00,
2013-10-25 15:03:00,43.5,28.9,30.26,SE,137,4.0,5.0,56,0.00,,BKN065,0.00,VWS V14.01,2013-10-25 19:03:00,
2013-10-25 15:08:00,43.5,29.7,30.25,SSW,193,2.0,5.0,58,0.00,,BKN065,0.00,VWS V14.01,2013-10-25 19:08:00,
2013-10-25 15:13:00,43.3,29.1,30.25,South,176,2.0,3.0,57,0.00,,BKN065,0.00,VWS V14.01,2013-10-25 19:13:00,
2013-10-25 15:18:00,43.3,30.0,30.25,SSW,204,4.0,5.0,59,0.00,,BKN065,0.00,VWS V14.01,2013-10-25 19:18:00,
2013-10-25 15:23:00,43.5,29.7,30.25,SE,126,8.0,8.0,58,0.00,,BKN065,0.00,VWS V14.01,2013-10-25 19:23:00,
2013-10-25 15:28:00,43.5,29.7,30.25,SW,221,2.0,5.0,58,0.00,,BKN065,0.00,VWS V14.01,2013-10-25 19:28:00,
2013-10-25 15:33:00,43.4,29.6,30.25,SSW,196,2.0,10.0,58,0.00,,BKN065,0.00,VWS V14.01,2013-10-25 19:33:00,
2013-10-25 15:38:00,43.3,30.4,30.25,WSW,244,4.0,10.0,60,0.00,,BKN060,0.00,VWS V14.01,2013-10-25 19:38:00,
2013-10-25 15:43:00,43.2,30.3,30.25,South,170,4.0,4.0,60,0.00,,BKN060,0.00,VWS V14.01,2013-10-25 19:43:00,
2013-10-25 15:48:00,43.1,30.6,30.25,SW,232,4.0,4.0,61,0.00,,BKN060,0.00,VWS V14.01,2013-10-25 19:48:00,
2013-10-25 15:53:00,43.0,30.5,30.25,WSW,247,6.0,6.0,61,0.00,,BKN065,0.00,VWS V14.01,2013-10-25 19:53:00,
2013-10-25 15:58:00,42.9,30.8,30.25,NNE,30,0.0,5.0,62,0.00,,BKN065,0.00,VWS V14.01,2013-10-25 19:58:00,
2013-10-25 16:03:00,42.9,30.8,30.25,WSW,238,4.0,4.0,62,0.00,,BKN065,0.00,VWS V14.01,2013-10-25 20:03:00,
2013-10-25 16:08:00,43.0,30.9,30.25,NW,315,4.0,4.0,62,0.00,,BKN065,0.00,VWS V14.01,2013-10-25 20:08:00,
2013-10-25 16:13:00,43.0,30.9,30.25,WSW,251,6.0,6.0,62,0.00,,BKN065,0.00,VWS V14.01,2013-10-25 20:13:00,
2013-10-25 16:18:00,43.0,31.3,30.25,SSE,157,6.0,7.0,63,0.00,,BKN065,0.00,VWS V14.01,2013-10-25 20:18:00,
2013-10-25 16:23:00,42.9,30.8,30.25,WSW,237,6.0,7.0,62,0.00,,BKN065,0.00,VWS V14.01,2013-10-25 20:23:00,
2013-10-25 16:28:00,42.8,30.7,30.24,SW,226,4.0,8.0,62,0.00,,BKN065,0.00,VWS V14.01,2013-10-25 20:28:00,
2013-10-25 16:33:00,42.8,31.1,30.24,SW,221,2.0,7.0,63,0.00,,BKN065,0.00,VWS V14.01,2013-10-25 20:33:00,
2013-10-25 16:38:00,42.8,31.5,30.24,West,261,2.0,7.0,64,0.00,,BKN065,0.00,VWS V14.01,2013-10-25 20:38:00,
2013-10-25 16:43:00,42.8,31.5,30.24,SW,228,2.0,4.0,64,0.00,,BKN065,0.00,VWS V14.01,2013-10-25 20:43:00,
2013-10-25 16:48:00,42.7,31.4,30.24,SSW,204,0.0,4.0,64,0.00,,BKN065,0.00,VWS V14.01,2013-10-25 20:48:00,
2013-10-25 16:53:00,42.7,31.8,30.24,WSW,242,0.0,3.0,65,0.00,,BKN065,0.00,VWS V14.01,2013-10-25 20:53:00,
2013-10-25 16:58:00,42.8,31.5,30.24,SW,229,2.0,3.0,64,0.00,,BKN060,0.00,VWS V14.01,2013-10-25 20:58:00,
2013-10-25 17:03:00,42.9,31.6,30.23,West,271,4.0,4.0,64,0.00,,BKN060,0.00,VWS V14.01,2013-10-25 21:03:00,
2013-10-25 17:08:00,42.9,31.2,30.23,SSW,213,2.0,3.0,63,0.00,,BKN060,0.00,VWS V14.01,2013-10-25 21:08:00,
2013-10-25 17:13:00,42.8,31.5,30.23,WSW,242,4.0,4.0,64,0.00,,BKN060,0.00,VWS V14.01,2013-10-25 21:13:00,
2013-10-25 17:19:00,42.8,31.5,30.23,South,189,2.0,7.0,64,0.00,,BKN060,0.00,VWS V14.01,2013-10-25 21:19:00,
2013-10-25 17:24:00,42.7,31.4,30.22,SW,236,4.0,4.0,64,0.00,,BKN060,0.00,VWS V14.01,2013-10-25 21:24:00,
2013-10-25 17:29:00,42.7,31.0,30.22,West,275,4.0,6.0,63,0.00,,BKN060,0.00,VWS V14.01,2013-10-25 21:29:00,
2013-10-25 17:34:00,42.6,30.5,30.22,SW,235,2.0,4.0,62,0.00,,BKN060,0.00,VWS V14.01,2013-10-25 21:34:00,
2013-10-25 17:39:00,42.5,30.8,30.22,South,184,0.0,6.0,63,0.00,,BKN060,0.00,VWS V14.01,2013-10-25 21:39:00,
2013-10-25 17:44:00,42.5,30.8,30.22,WSW,257,2.0,3.0,63,0.00,,BKN060,0.00,VWS V14.01,2013-10-25 21:44:00,
2013-10-25 17:49:00,42.5,30.8,30.21,South,177,4.0,4.0,63,0.00,,BKN060,0.00,VWS V14.01,2013-10-25 21:49:00,
2013-10-25 17:54:00,42.5,30.8,30.21,SW,221,2.0,4.0,63,0.00,,BKN060,0.00,VWS V14.01,2013-10-25 21:54:00,
2013-10-25 17:59:00,42.4,30.7,30.21,SW,217,2.0,4.0,63,0.00,,BKN070,0.00,VWS V14.01,2013-10-25 21:59:00,
2013-10-25 18:04:00,42.4,30.7,30.21,SSW,211,4.0,4.0,63,0.00,,BKN070,0.00,VWS V14.01,2013-10-25 22:04:00,
2013-10-25 18:09:00,42.4,30.7,30.20,SSW,192,2.0,3.0,63,0.00,,BKN070,0.00,VWS V14.01,2013-10-25 22:09:00,
2013-10-25 18:14:00,42.3,31.0,30.20,South,182,2.0,5.0,64,0.00,,BKN070,0.00,VWS V14.01,2013-10-25 22:14:00,
2013-10-25 18:19:00,42.2,31.3,30.20,SW,223,0.0,5.0,65,0.00,,BKN070,0.00,VWS V14.01,2013-10-25 22:19:00,
2013-10-25 18:24:00,42.2,31.3,30.20,South,190,2.0,2.0,65,0.00,,BKN070,0.00,VWS V14.01,2013-10-25 22:24:00,
2013-10-25 18:29:00,42.1,31.2,30.20,SSW,192,4.0,4.0,65,0.00,,BKN070,0.00,VWS V14.01,2013-10-25 22:29:00,
2013-10-25 18:34:00,42.0,31.5,30.20,SSW,193,2.0,3.0,66,0.00,,BKN070,0.00,VWS V14.01,2013-10-25 22:34:00,
2013-10-25 18:39:00,41.8,31.3,30.20,South,177,0.0,3.0,66,0.00,,BKN070,0.00,VWS V14.01,2013-10-25 22:39:00,
2013-10-25 18:44:00,41.7,31.2,30.20,SSW,205,0.0,2.0,66,0.00,,BKN070,0.00,VWS V14.01,2013-10-25 22:44:00,
2013-10-25 18:49:00,41.6,31.1,30.20,South,181,0.0,5.0,66,0.00,,BKN070,0.00,VWS V14.01,2013-10-25 22:49:00,
2013-10-25 18:54:00,41.5,31.4,30.20,South,176,0.0,2.0,67,0.00,,BKN070,0.00,VWS V14.01,2013-10-25 22:54:00,
2013-10-25 18:59:00,41.4,31.3,30.20,South,187,0.0,3.0,67,0.00,,BKN210,0.00,VWS V14.01,2013-10-25 22:59:00,
2013-10-25 19:04:00,41.4,31.6,30.20,South,189,2.0,2.0,68,0.00,,BKN210,0.00,VWS V14.01,2013-10-25 23:04:00,
2013-10-25 19:09:00,41.3,31.5,30.20,South,189,2.0,2.0,68,0.00,,BKN210,0.00,VWS V14.01,2013-10-25 23:09:00,
2013-10-25 19:14:00,41.2,31.5,30.19,South,182,0.0,2.0,68,0.00,,BKN210,0.00,VWS V14.01,2013-10-25 23:14:00,
2013-10-25 19:19:00,41.1,31.4,30.19,South,190,2.0,2.0,68,0.00,,BKN210,0.00,VWS V14.01,2013-10-25 23:19:00,
2013-10-25 19:24:00,41.1,31.4,30.19,South,182,2.0,2.0,68,0.00,,BKN210,0.00,VWS V14.01,2013-10-25 23:24:00,
2013-10-25 19:29:00,40.9,31.2,30.19,SSW,192,0.0,2.0,68,0.00,,BKN210,0.00,VWS V14.01,2013-10-25 23:29:00,
2013-10-25 19:34:00,40.8,31.4,30.19,SSW,194,0.0,2.0,69,0.00,,BKN210,0.00,VWS V14.01,2013-10-25 23:34:00,
2013-10-25 19:39:00,40.7,31.3,30.19,South,178,4.0,4.0,69,0.00,,BKN210,0.00,VWS V14.01,2013-10-25 23:39:00,
2013-10-25 19:44:00,40.6,30.9,30.19,South,188,2.0,3.0,68,0.00,,BKN210,0.00,VWS V14.01,2013-10-25 23:44:00,
2013-10-25 19:49:00,40.6,30.9,30.19,South,180,2.0,4.0,68,0.00,,BKN210,0.00,VWS V14.01,2013-10-25 23:49:00,
2013-10-25 19:54:00,40.4,30.7,30.19,South,185,2.0,3.0,68,0.00,,BKN210,0.00,VWS V14.01,2013-10-25 23:54:00,
2013-10-25 19:59:00,40.2,30.5,30.18,South,191,4.0,4.0,68,0.00,,BKN210,0.00,VWS V14.01,2013-10-25 23:59:00,
2013-10-25 20:05:00,40.1,30.4,30.18,SW,217,2.0,4.0,68,0.00,,BKN210,0.00,VWS V14.01,2013-10-26 00:05:00,
2013-10-25 20:10:00,39.9,30.6,30.18,South,191,2.0,4.0,69,0.00,,BKN210,0.00,VWS V14.01,2013-10-26 00:10:00,
2013-10-25 20:15:00,39.8,30.5,30.18,South,190,2.0,3.0,69,0.00,,BKN210,0.00,VWS V14.01,2013-10-26 00:15:00,
2013-10-25 20:20:00,39.7,30.7,30.18,SSW,205,2.0,3.0,70,0.00,,BKN210,0.00,VWS V14.01,2013-10-26 00:20:00,
2013-10-25 20:25:00,39.6,31.0,30.18,South,187,2.0,2.0,71,0.00,,BKN210,0.00,VWS V14.01,2013-10-26 00:25:00,
2013-10-25 20:30:00,39.4,30.8,30.17,South,185,2.0,2.0,71,0.00,,BKN210,0.00,VWS V14.01,2013-10-26 00:30:00,
2013-10-25 20:35:00,39.3,31.0,30.17,South,182,4.0,4.0,72,0.00,,BKN210,0.00,VWS V14.01,2013-10-26 00:35:00,
2013-10-25 20:40:00,39.1,30.9,30.17,South,188,2.0,3.0,72,0.00,,BKN210,0.00,VWS V14.01,2013-10-26 00:40:00,
2013-10-25 20:45:00,38.9,31.0,30.17,SSW,195,2.0,2.0,73,0.00,,BKN210,0.00,VWS V14.01,2013-10-26 00:45:00,
2013-10-25 20:50:00,38.8,30.9,30.17,SW,230,4.0,4.0,73,0.00,,BKN210,0.00,VWS V14.01,2013-10-26 00:50:00,
2013-10-25 20:55:00,38.7,30.8,30.16,SSE,164,2.0,4.0,73,0.00,,BKN210,0.00,VWS V14.01,2013-10-26 00:55:00,
2013-10-25 21:00:00,38.6,30.7,30.16,SW,218,2.0,2.0,73,0.00,,FEW055,0.00,VWS V14.01,2013-10-26 01:00:00,
2013-10-25 21:05:00,38.4,30.5,30.16,SW,218,2.0,2.0,73,0.00,,FEW055,0.00,VWS V14.01,2013-10-26 01:05:00,
2013-10-25 21:10:00,38.3,30.4,30.16,SSW,194,0.0,2.0,73,0.00,,FEW055,0.00,VWS V14.01,2013-10-26 01:10:00,
2013-10-25 21:15:00,38.3,30.1,30.16,South,180,6.0,6.0,72,0.00,,FEW055,0.00,VWS V14.01,2013-10-26 01:15:00,
2013-10-25 21:20:00,38.3,30.1,30.16,SW,231,4.0,4.0,72,0.00,,FEW055,0.00,VWS V14.01,2013-10-26 01:20:00,
2013-10-25 21:25:00,38.3,29.7,30.15,South,189,2.0,3.0,71,0.00,,FEW055,0.00,VWS V14.01,2013-10-26 01:25:00,
2013-10-25 21:30:00,38.3,29.7,30.15,WSW,238,4.0,4.0,71,0.00,,FEW055,0.00,VWS V14.01,2013-10-26 01:30:00,
2013-10-25 21:35:00,38.4,29.8,30.15,SSE,168,2.0,4.0,71,0.00,,FEW055,0.00,VWS V14.01,2013-10-26 01:35:00,
2013-10-25 21:40:00,38.4,29.5,30.15,South,184,2.0,2.0,70,0.00,,FEW055,0.00,VWS V14.01,2013-10-26 01:40:00,
2013-10-25 21:45:00,38.5,29.6,30.15,South,184,4.0,4.0,70,0.00,,FEW055,0.00,VWS V14.01,2013-10-26 01:45:00,
2013-10-25 21:50:00,38.5,29.2,30.15,South,190,2.0,2.0,69,0.00,,FEW055,0.00,VWS V14.01,2013-10-26 01:50:00,
2013-10-25 21:55:00,38.4,29.5,30.15,South,190,2.0,3.0,70,0.00,,FEW055,0.00,VWS V14.01,2013-10-26 01:55:00,
2013-10-25 22:00:00,38.4,29.5,30.14,SSW,195,2.0,2.0,70,0.00,,FEW055,0.00,VWS V14.01,2013-10-26 02:00:00,
2013-10-25 22:05:00,38.3,29.7,30.14,SSW,207,2.0,2.0,71,0.00,,FEW055,0.00,VWS V14.01,2013-10-26 02:05:00,
2013-10-25 22:10:00,38.2,29.6,30.14,South,189,2.0,2.0,71,0.00,,FEW055,0.00,VWS V14.01,2013-10-26 02:10:00,
2013-10-25 22:15:00,38.2,29.6,30.14,South,182,2.0,4.0,71,0.00,,FEW055,0.00,VWS V14.01,2013-10-26 02:15:00,
2013-10-25 22:20:00,38.2,29.3,30.13,SSW,194,4.0,5.0,70,0.00,,FEW055,0.00,VWS V14.01,2013-10-26 02:20:00,
2013-10-25 22:25:00,38.2,29.3,30.13,SSW,207,4.0,5.0,70,0.00,,FEW055,0.00,VWS V14.01,2013-10-26 02:25:00,
2013-10-25 22:30:00,38.3,29.4,30.13,SSW,200,8.0,8.0,70,0.00,,FEW055,0.00,VWS V14.01,2013-10-26 02:30:00,
2013-10-25 22:36:00,38.3,29.4,30.12,WSW,252,4.0,4.0,70,0.00,,FEW055,0.00,VWS V14.01,2013-10-26 02:36:00,
2013-10-25 22:41:00,38.2,29.3,30.12,SSW,211,4.0,4.0,70,0.00,,FEW055,0.00,VWS V14.01,2013-10-26 02:41:00,
2013-10-25 22:46:00,38.3,29.4,30.12,SW,234,6.0,6.0,70,0.00,,FEW055,0.00,VWS V14.01,2013-10-26 02:46:00,
2013-10-25 22:51:00,38.4,29.1,30.12,South,181,8.0,8.0,69,0.00,,FEW055,0.00,VWS V14.01,2013-10-26 02:51:00,
2013-10-25 22:56:00,38.5,29.2,30.12,SW,221,4.0,5.0,69,0.00,,FEW055,0.00,VWS V14.01,2013-10-26 02:56:00,
2013-10-25 23:01:00,38.6,29.0,30.12,SW,215,6.0,6.0,68,0.00,,FEW110,0.00,VWS V14.01,2013-10-26 03:01:00,
2013-10-25 23:06:00,38.8,28.8,30.11,SSW,196,6.0,6.0,67,0.00,,FEW110,0.00,VWS V14.01,2013-10-26 03:06:00,
2013-10-25 23:11:00,38.9,28.9,30.11,SSW,194,6.0,6.0,67,0.00,,FEW110,0.00,VWS V14.01,2013-10-26 03:11:00,
2013-10-25 23:16:00,39.1,28.7,30.11,South,181,6.0,7.0,66,0.00,,FEW110,0.00,VWS V14.01,2013-10-26 03:16:00,
2013-10-25 23:21:00,39.3,28.5,30.11,South,178,6.0,7.0,65,0.00,,FEW110,0.00,VWS V14.01,2013-10-26 03:21:00,
2013-10-25 23:26:00,39.4,28.6,30.11,South,184,2.0,7.0,65,0.00,,FEW110,0.00,VWS V14.01,2013-10-26 03:26:00,
2013-10-25 23:31:00,39.5,28.4,30.11,South,176,2.0,5.0,64,0.00,,FEW110,0.00,VWS V14.01,2013-10-26 03:31:00,
2013-10-25 23:36:00,39.6,28.8,30.10,SSE,147,6.0,7.0,65,0.00,,FEW110,0.00,VWS V14.01,2013-10-26 03:36:00,
2013-10-25 23:41:00,39.6,28.4,30.09,SSW,194,6.0,6.0,64,0.00,,FEW110,0.00,VWS V14.01,2013-10-26 03:41:00,
2013-10-25 23:46:00,39.6,28.1,30.08,SSW,207,6.0,10.0,63,0.00,,FEW110,0.00,VWS V14.01,2013-10-26 03:46:00,
2013-10-25 23:51:00,39.7,28.1,30.09,South,180,10.0,10.0,63,0.00,,FEW110,0.00,VWS V14.01,2013-10-26 03:51:00,
2013-10-25 23:56:00,39.7,28.1,30.09,South,184,2.0,10.0,63,0.00,,FEW110,0.00,VWS V14.01,2013-10-26 03:56:00,